Lima, OH

10:45 AM EDT on September 27, 2016 (GMT -0400)
Lima Allen County

Weather History for KAOH - April, 2013

Change the Weather History Date:

Wednesday, April 10, 2013

  Actual Average (KFDY) Record (KFDY)
Temperature  
Mean Temperature 62 °F -  
Max Temperature 81 °F 53 °F 82 °F (2011)
Min Temperature 48 °F 33 °F 20 °F (1989)
Degree Days  
Heating Degree Days 2    
Growing Degree Days 12 (Base 50)    
Moisture  
Dew Point 59 °F    
Average Humidity 79    
Maximum Humidity 100    
Minimum Humidity 56    
Precipitation  
Precipitation 2.30 in - - ()
Sea Level Pressure  
Sea Level Pressure 29.86 in    
Wind  
Wind Speed 12 mph (WSW)    
Max Wind Speed 39 mph    
Max Gust Speed 68 mph    
Visibility 6 miles    
Events Fog , Rain , Thunderstorm    
Averages and records for this station are not official NWS values.
T = Trace of Precipitation, MM = Missing Value Source: NWS Daily Summary

Daily Weather History Graph

Daily Weather History Graph

Search for Another Location

Airport or City:

Trip Planner

Search our weather history database for the weather conditions in past years. The results will help you decide how hot, cold, wet, or windy it might be!

Date:

Astronomy

Apr. 10, 2013 Rise Set
Actual Time 7:04 AM EDT 8:10 PM EDT
Civil Twilight 6:36 AM EDT 8:38 PM EDT
Nautical Twilight 6:03 AM EDT 9:12 PM EDT
Astronomical Twilight 5:28 AM EDT 9:47 PM EDT
Moon 7:00 AM EDT (4/10) 8:45 PM EDT (4/10)
Length of Visible Light 14h 01m
Length of Day
13h 05m
New Moon, 0% of the Moon is Illuminated
Apr 10
New Moon
Apr 18
First Quarter
Apr 25
Full
May 2
Last Quarter
May 9
New

Hourly Weather History & Observations

Time (EDT) Temp. Dew Point Humidity Pressure Visibility Wind Dir Wind Speed Gust Speed Precip Events Conditions
12:53 AM 68.0 °F 52.0 °F 56% 29.90 in 10.0 mi Calm Calm - N/A   Overcast
1:53 AM 69.1 °F 55.0 °F 61% 29.91 in 10.0 mi SSW 10.4 mph - N/A   Overcast
2:53 AM 68.0 °F 55.9 °F 65% 29.89 in 10.0 mi SW 10.4 mph - N/A   Mostly Cloudy
3:53 AM 68.0 °F 57.0 °F 68% 29.87 in 10.0 mi SSW 8.1 mph - N/A   Overcast
4:53 AM 66.9 °F 57.0 °F 70% 29.88 in 10.0 mi SSW 5.8 mph - N/A   Overcast
5:53 AM 64.9 °F 57.0 °F 75% 29.87 in 10.0 mi SW 5.8 mph - N/A   Overcast
6:53 AM 66.0 °F 57.0 °F 73% 29.86 in 10.0 mi South 10.4 mph - N/A   Overcast
7:53 AM 68.0 °F 57.9 °F 70% 29.86 in 10.0 mi SSW 10.4 mph - N/A   Overcast
8:53 AM 70.0 °F 57.9 °F 65% 29.84 in 10.0 mi SSW 15.0 mph 24.2 mph N/A   Partly Cloudy
9:34 AM 69.8 °F 59.0 °F 68% 29.86 in 10.0 mi SSW 17.3 mph 25.3 mph 0.00 in Rain , Thunderstorm Light Thunderstorms and Rain
9:53 AM 69.1 °F 60.1 °F 73% 29.84 in 10.0 mi SSW 15.0 mph 23.0 mph 0.02 in Thunderstorm Overcast
9:58 AM 69.8 °F 60.8 °F 73% 29.86 in 1.8 mi SW 15.0 mph 21.9 mph N/A Thunderstorm Haze
10:07 AM 69.8 °F 60.8 °F 73% 29.87 in 3.0 mi SW 16.1 mph 24.2 mph N/A   Haze
10:53 AM 72.0 °F 61.0 °F 68% 29.85 in 10.0 mi SW 18.4 mph 24.2 mph N/A   Mostly Cloudy
11:53 AM 73.9 °F 62.1 °F 66% 29.85 in 10.0 mi SW 13.8 mph 21.9 mph N/A   Scattered Clouds
12:04 PM 75.2 °F 62.6 °F 65% 29.87 in 10.0 mi WSW 20.7 mph 27.6 mph N/A   Mostly Cloudy
12:32 PM 75.2 °F 62.6 °F 65% 29.86 in 10.0 mi SW 19.6 mph 25.3 mph N/A   Mostly Cloudy
2:53 PM 77.0 °F 62.1 °F 60% 29.78 in 10.0 mi SSW 19.6 mph 27.6 mph 0.00 in Rain , Thunderstorm Light Rain
2:58 PM 75.2 °F 64.4 °F 69% 29.81 in 1.8 mi SW 21.9 mph 28.8 mph 0.09 in Rain , Thunderstorm Heavy Rain
3:04 PM 64.4 °F 57.2 °F 77% 29.84 in 1.5 mi NNW 39.1 mph 67.9 mph 0.10 in Rain , Thunderstorm Light Rain
3:07 PM 57.2 °F 53.6 °F 88% 29.87 in 3.0 mi NNW 20.7 mph 67.9 mph 0.10 in Rain , Thunderstorm Light Rain
3:14 PM 57.2 °F 53.6 °F 88% 29.84 in 3.0 mi NNW 21.9 mph 39.1 mph 0.11 in Rain , Thunderstorm Light Thunderstorms and Rain
3:22 PM 60.8 °F 55.4 °F 82% 29.82 in 1.8 mi NW 23.0 mph 32.2 mph 0.20 in Rain , Thunderstorm Thunderstorms and Rain
3:33 PM 62.6 °F 57.2 °F 82% 29.84 in 3.0 mi West 16.1 mph 24.2 mph 0.24 in Rain , Thunderstorm Light Thunderstorms and Rain
3:46 PM 62.6 °F 57.2 °F 82% 29.84 in 7.0 mi WSW 12.7 mph - 0.27 in Rain , Thunderstorm Light Thunderstorms and Rain
3:50 PM 62.6 °F 59.0 °F 88% 29.84 in 1.5 mi West 13.8 mph - 0.36 in Rain , Thunderstorm Heavy Thunderstorms and Rain
3:53 PM 62.1 °F 59.0 °F 90% 29.83 in 1.2 mi West 16.1 mph 21.9 mph 0.38 in Rain , Thunderstorm Heavy Thunderstorms and Rain
4:01 PM 62.6 °F 60.8 °F 94% 29.83 in 3.0 mi West 11.5 mph - 0.00 in Rain , Thunderstorm Light Rain
4:31 PM 64.4 °F 62.6 °F 94% 29.83 in 9.0 mi West 9.2 mph - 0.01 in Thunderstorm Mostly Cloudy
4:53 PM 66.0 °F 62.1 °F 87% 29.81 in 9.0 mi SSW 8.1 mph - 0.01 in   Scattered Clouds
5:03 PM 64.4 °F 62.6 °F 94% 29.81 in 10.0 mi SW 5.8 mph - N/A Thunderstorm Mostly Cloudy
5:17 PM 64.4 °F 60.8 °F 88% 29.81 in 0.8 mi West 5.8 mph 16.1 mph 0.19 in Rain , Thunderstorm Heavy Thunderstorms and Rain
5:24 PM 64.4 °F 60.8 °F 88% 29.80 in 0.5 mi West 6.9 mph - 0.21 in Fog , Rain , Thunderstorm Light Thunderstorms and Rain
5:26 PM 64.4 °F 60.8 °F 88% 29.80 in 1.0 mi West 8.1 mph - 0.21 in Rain , Thunderstorm Light Thunderstorms and Rain
5:29 PM 64.4 °F 60.8 °F 88% 29.80 in 4.0 mi West 6.9 mph - 0.21 in Rain , Thunderstorm Light Thunderstorms and Rain
5:53 PM 64.9 °F 61.0 °F 87% 29.88 in 8.0 mi West 12.7 mph - 0.21 in Thunderstorm Thunderstorm
5:59 PM 62.6 °F 60.8 °F 94% 29.94 in 1.8 mi NW 27.6 mph 36.8 mph 0.21 in Rain , Thunderstorm Heavy Thunderstorms and Rain
6:02 PM 60.8 °F 57.2 °F 88% 29.90 in 0.8 mi NNW 24.2 mph 36.8 mph 0.43 in Rain , Thunderstorm Heavy Thunderstorms and Rain
6:08 PM 57.2 °F 57.2 °F 100% 29.90 in 0.8 mi NNW 18.4 mph 29.9 mph 0.60 in Rain , Thunderstorm Heavy Thunderstorms and Rain
6:12 PM 57.2 °F 57.2 °F 100% 29.89 in 1.2 mi NNW 17.3 mph - 0.62 in Rain , Thunderstorm Heavy Thunderstorms and Rain
6:17 PM 57.2 °F 57.2 °F 100% 29.88 in 3.0 mi North 18.4 mph - 0.64 in Rain , Thunderstorm Thunderstorms and Rain
6:53 PM 51.1 °F - N/A% 29.88 in 7.0 mi NNE 10.4 mph 19.6 mph 0.76 in Rain , Thunderstorm Light Thunderstorms and Rain
7:15 PM 50.0 °F - N/A% 29.86 in 6.0 mi NNE 9.2 mph 18.4 mph 0.02 in Rain , Thunderstorm Light Thunderstorms and Rain
7:53 PM 51.1 °F - N/A% 29.84 in 7.0 mi East 9.2 mph - 0.05 in Rain , Thunderstorm Light Thunderstorms and Rain
8:13 PM 51.8 °F - N/A% 29.87 in 7.0 mi ESE 6.9 mph - 0.01 in Rain Light Rain
8:20 PM 51.8 °F - N/A% 29.88 in 8.0 mi SE 9.2 mph - 0.01 in Rain , Thunderstorm Light Rain
8:31 PM 51.8 °F - N/A% 29.88 in 8.0 mi ESE 8.1 mph - 0.02 in Rain , Thunderstorm Light Rain
8:39 PM 51.8 °F - N/A% 29.87 in 8.0 mi East 6.9 mph - 0.02 in Rain , Thunderstorm Light Rain
8:46 PM 51.8 °F - N/A% 29.87 in 9.0 mi NE 6.9 mph - 0.02 in Rain Light Rain
8:53 PM 52.0 °F - N/A% 29.86 in 8.0 mi North 11.5 mph - 0.03 in Rain Light Rain
9:02 PM 51.8 °F - N/A% 29.87 in 6.0 mi North 13.8 mph - 0.00 in Rain , Thunderstorm Light Thunderstorms and Rain
9:13 PM 51.8 °F - N/A% 29.88 in 6.0 mi North 17.3 mph - 0.00 in Rain , Thunderstorm Light Rain
9:53 PM 48.0 °F - N/A% 29.91 in 2.0 mi Variable 5.8 mph - 0.34 in Rain , Thunderstorm Thunderstorms and Rain
10:02 PM 48.2 °F - N/A% 29.92 in 4.0 mi NNE 8.1 mph - 0.05 in Rain , Thunderstorm Thunderstorms and Rain
10:09 PM 48.2 °F - N/A% 29.92 in 1.8 mi NNE 9.2 mph - 0.16 in Rain , Thunderstorm Heavy Thunderstorms and Rain
10:25 PM 48.2 °F - N/A% 29.87 in 2.0 mi ENE 15.0 mph - 0.39 in Rain , Thunderstorm Heavy Thunderstorms and Rain
10:30 PM 48.2 °F - N/A% 29.86 in 3.0 mi East 15.0 mph - 0.41 in Rain Heavy Rain
10:53 PM 48.0 °F - N/A% 29.87 in 4.0 mi ENE 10.4 mph - 0.46 in Rain , Thunderstorm Thunderstorms and Rain
11:03 PM 48.2 °F - N/A% 29.85 in 4.0 mi East 18.4 mph - 0.02 in Rain , Thunderstorm Light Thunderstorms and Rain
11:12 PM 48.2 °F - N/A% 29.85 in 5.0 mi East 13.8 mph - 0.03 in Rain Light Rain
11:41 PM 48.2 °F - N/A% 29.85 in 10.0 mi East 12.7 mph 19.6 mph 0.04 in   Overcast
11:53 PM 48.0 °F - N/A% 29.84 in 10.0 mi East 12.7 mph - 0.04 in   Overcast